Time,TemperatureF,DewpointF,PressureIn,WindDirection,WindDirectionDegrees,WindSpeedMPH,WindSpeedGustMPH,Humidity,HourlyPrecipIn,Conditions,Clouds,dailyrainin,SoftwareType,DateUTC
2013-08-24 00:00:00,63.2,60.8,30.15,North,0,0.0,4.0,92,0.00,RA,,0.00,WeatherDisplay:10.37,2013-08-24 04:00:00,
2013-08-24 00:14:00,63.0,60.6,30.16,North,3,0.0,5.0,92,0.00,FEW,,0.00,WeatherDisplay:10.37,2013-08-24 04:14:00,
2013-08-24 00:30:00,62.8,60.4,30.17,North,8,0.0,0.0,92,0.00,CLR,,0.00,WeatherDisplay:10.37,2013-08-24 04:30:00,
2013-08-24 00:44:00,62.6,60.2,30.17,North,0,0.0,5.0,92,0.00,CLR,,0.00,WeatherDisplay:10.37,2013-08-24 04:44:00,
2013-08-24 01:00:00,62.5,60.1,30.17,North,2,1.0,6.0,92,0.00,CLR,,0.00,WeatherDisplay:10.37,2013-08-24 05:00:00,
2013-08-24 01:14:00,62.4,60.0,30.18,North,8,0.0,4.0,92,0.01,RA,,0.01,WeatherDisplay:10.37,2013-08-24 05:14:00,
2013-08-24 01:30:00,62.3,59.9,30.17,NNW,342,1.0,4.0,92,0.00,CLR,,0.01,WeatherDisplay:10.37,2013-08-24 05:30:00,
2013-08-24 01:44:00,62.2,59.8,30.17,North,350,0.0,3.0,92,0.00,CLR,,0.01,WeatherDisplay:10.37,2013-08-24 05:44:00,
2013-08-24 02:00:00,62.2,59.8,30.17,NNE,17,1.0,6.0,92,0.00,BKN,,0.01,WeatherDisplay:10.37,2013-08-24 06:00:00,
2013-08-24 02:14:00,62.2,59.8,30.17,North,6,0.0,5.0,92,0.00,BKN,,0.01,WeatherDisplay:10.37,2013-08-24 06:14:00,
2013-08-24 02:30:00,62.1,59.7,30.17,NNE,24,2.0,5.0,92,0.00,SCT,,0.01,WeatherDisplay:10.37,2013-08-24 06:30:00,
2013-08-24 02:44:00,62.0,59.3,30.18,ENE,57,0.0,4.0,91,0.00,SCT,,0.01,WeatherDisplay:10.37,2013-08-24 06:44:00,
2013-08-24 03:00:00,61.9,59.5,30.18,NE,38,0.0,4.0,92,0.00,SCT,,0.01,WeatherDisplay:10.37,2013-08-24 07:00:00,
2013-08-24 03:14:00,61.8,59.5,30.18,ENE,64,0.0,4.0,92,0.00,SCT,,0.01,WeatherDisplay:10.37,2013-08-24 07:14:00,
2013-08-24 03:30:00,61.7,59.4,30.19,ENE,64,0.0,0.0,92,0.00,BKN,,0.01,WeatherDisplay:10.37,2013-08-24 07:30:00,
2013-08-24 03:44:00,61.4,59.1,30.19,ENE,60,0.0,3.0,92,0.00,BKN,,0.01,WeatherDisplay:10.37,2013-08-24 07:44:00,
2013-08-24 04:00:00,61.3,59.3,30.19,NE,49,0.0,0.0,93,0.00,BKN,,0.01,WeatherDisplay:10.37,2013-08-24 08:00:00,
2013-08-24 04:14:00,61.6,59.6,30.19,NNE,21,0.0,0.0,93,0.00,BKN,,0.01,WeatherDisplay:10.37,2013-08-24 08:14:00,
2013-08-24 04:30:00,62.0,59.9,30.20,North,4,1.0,7.0,93,0.00,OVC,,0.01,WeatherDisplay:10.37,2013-08-24 08:30:00,
2013-08-24 04:44:00,62.3,60.2,30.20,NE,38,2.0,9.0,93,0.00,OVC,,0.01,WeatherDisplay:10.37,2013-08-24 08:44:00,
2013-08-24 05:00:00,62.5,60.1,30.21,NE,35,1.0,7.0,92,0.00,BKN,,0.01,WeatherDisplay:10.37,2013-08-24 09:00:00,
2013-08-24 05:14:00,62.5,60.1,30.21,NNE,32,0.0,7.0,92,0.00,BKN,,0.01,WeatherDisplay:10.37,2013-08-24 09:14:00,
2013-08-24 05:30:00,62.2,59.8,30.22,NNE,33,0.0,5.0,92,0.00,SCT,,0.01,WeatherDisplay:10.37,2013-08-24 09:30:00,
2013-08-24 05:44:00,61.8,59.5,30.22,NNE,27,0.0,4.0,92,0.00,SCT,,0.01,WeatherDisplay:10.37,2013-08-24 09:44:00,
2013-08-24 06:00:00,61.5,59.2,30.22,North,7,0.0,4.0,92,0.00,SCT,,0.01,WeatherDisplay:10.37,2013-08-24 10:00:00,
2013-08-24 06:14:00,61.2,59.2,30.23,North,9,0.0,4.0,93,0.00,SCT,,0.01,WeatherDisplay:10.37,2013-08-24 10:14:00,
2013-08-24 06:30:00,60.9,58.6,30.23,North,9,0.0,3.0,92,0.00,CLR,,0.01,WeatherDisplay:10.37,2013-08-24 10:30:00,
2013-08-24 06:44:00,60.6,58.6,30.24,North,9,0.0,0.0,93,0.00,CLR,,0.01,WeatherDisplay:10.37,2013-08-24 10:44:00,
2013-08-24 06:59:00,60.3,58.3,30.24,North,9,0.0,0.0,93,0.00,CLR,,0.01,WeatherDisplay:10.37,2013-08-24 10:59:00,
2013-08-24 07:14:00,60.2,58.2,30.25,North,9,0.0,0.0,93,0.00,CLR,,0.01,WeatherDisplay:10.37,2013-08-24 11:14:00,
2013-08-24 07:29:00,60.2,58.2,30.25,North,0,0.0,0.0,93,0.00,CLR,,0.01,WeatherDisplay:10.37,2013-08-24 11:29:00,
2013-08-24 07:44:00,60.5,58.8,30.26,North,3,0.0,2.0,94,0.00,CLR,,0.01,WeatherDisplay:10.37,2013-08-24 11:44:00,
2013-08-24 07:59:00,61.0,59.0,30.27,NNE,13,2.0,5.0,93,0.00,CLR,,0.01,WeatherDisplay:10.37,2013-08-24 11:59:00,
2013-08-24 08:14:00,61.8,59.7,30.27,North,10,0.0,3.0,93,0.00,CLR,,0.01,WeatherDisplay:10.37,2013-08-24 12:14:00,
2013-08-24 08:29:00,62.9,60.3,30.27,NNE,17,1.0,5.0,91,0.00,CLR,,0.01,WeatherDisplay:10.37,2013-08-24 12:29:00,
2013-08-24 08:44:00,64.5,60.8,30.27,North,6,1.0,6.0,88,0.00,CLR,,0.01,WeatherDisplay:10.37,2013-08-24 12:44:00,
2013-08-24 08:59:00,65.7,61.0,30.28,North,5,0.0,5.0,85,0.00,CLR,,0.01,WeatherDisplay:10.37,2013-08-24 12:59:00,
2013-08-24 09:14:00,66.9,61.3,30.28,NNE,19,0.0,6.0,82,0.00,CLR,,0.01,WeatherDisplay:10.37,2013-08-24 13:14:00,
2013-08-24 09:29:00,68.2,61.8,30.28,NNE,27,0.0,6.0,80,0.00,CLR,,0.01,WeatherDisplay:10.37,2013-08-24 13:29:00,
2013-08-24 09:44:00,68.8,61.3,30.29,NE,51,1.0,8.0,77,0.00,CLR,,0.01,WeatherDisplay:10.37,2013-08-24 13:44:00,
2013-08-24 09:59:00,69.5,61.3,30.29,NNE,24,2.0,7.0,75,0.00,CLR,,0.01,WeatherDisplay:10.37,2013-08-24 13:59:00,
2013-08-24 10:14:00,69.8,58.8,30.29,NE,48,3.0,10.0,68,0.00,CLR,,0.01,WeatherDisplay:10.37,2013-08-24 14:14:00,
2013-08-24 10:29:00,70.5,60.2,30.30,NE,37,1.0,9.0,70,0.00,CLR,,0.01,WeatherDisplay:10.37,2013-08-24 14:29:00,
2013-08-24 10:44:00,71.0,58.6,30.31,NE,35,2.0,12.0,65,0.00,CLR,,0.01,WeatherDisplay:10.37,2013-08-24 14:44:00,
2013-08-24 10:59:00,71.6,59.2,30.31,NE,44,3.0,9.0,65,0.00,CLR,,0.01,WeatherDisplay:10.37,2013-08-24 14:59:00,
2013-08-24 11:14:00,72.2,59.8,30.31,NE,34,3.0,10.0,65,0.00,CLR,,0.01,WeatherDisplay:10.37,2013-08-24 15:14:00,
2013-08-24 11:30:00,73.2,59.9,30.31,ENE,64,5.0,11.0,63,0.00,CLR,,0.01,WeatherDisplay:10.37,2013-08-24 15:30:00,
2013-08-24 11:44:00,73.6,58.9,30.31,NE,47,6.0,14.0,60,0.00,CLR,,0.01,WeatherDisplay:10.37,2013-08-24 15:44:00,
2013-08-24 11:59:00,74.4,60.5,30.30,NE,49,1.0,10.0,62,0.00,CLR,,0.01,WeatherDisplay:10.37,2013-08-24 15:59:00,
2013-08-24 12:14:00,74.9,60.1,30.31,NE,34,3.0,8.0,60,0.00,CLR,,0.01,WeatherDisplay:10.37,2013-08-24 16:14:00,
2013-08-24 12:30:00,75.7,59.4,30.31,NE,41,2.0,7.0,57,0.00,CLR,,0.01,WeatherDisplay:10.37,2013-08-24 16:30:00,
2013-08-24 12:44:00,76.6,60.2,30.30,NNE,30,2.0,9.0,57,0.00,CLR,,0.01,WeatherDisplay:10.37,2013-08-24 16:44:00,
2013-08-24 12:59:00,75.8,60.0,30.30,North,5,1.0,8.0,58,0.00,CLR,,0.01,WeatherDisplay:10.37,2013-08-24 16:59:00,
2013-08-24 13:14:00,76.8,59.5,30.30,NNE,32,3.0,9.0,55,0.00,CLR,,0.01,WeatherDisplay:10.37,2013-08-24 17:14:00,
2013-08-24 13:29:00,78.2,60.7,30.29,NE,51,3.0,12.0,55,0.00,CLR,,0.01,WeatherDisplay:10.37,2013-08-24 17:29:00,
2013-08-24 13:44:00,78.3,58.7,30.29,ENE,72,3.0,12.0,51,0.00,CLR,,0.01,WeatherDisplay:10.37,2013-08-24 17:44:00,
2013-08-24 13:59:00,78.2,58.0,30.29,ENE,73,5.0,12.0,50,0.00,CLR,,0.01,WeatherDisplay:10.37,2013-08-24 17:59:00,
2013-08-24 14:14:00,78.6,57.3,30.29,ENE,69,5.0,12.0,48,0.00,CLR,,0.01,WeatherDisplay:10.37,2013-08-24 18:14:00,
2013-08-24 14:30:00,78.9,58.1,30.29,ENE,61,6.0,10.0,49,0.00,CLR,,0.01,WeatherDisplay:10.37,2013-08-24 18:30:00,
2013-08-24 14:44:00,78.9,57.0,30.29,NNE,31,3.0,12.0,47,0.00,CLR,,0.01,WeatherDisplay:10.37,2013-08-24 18:44:00,
2013-08-24 14:59:00,78.7,57.9,30.29,NE,54,2.0,10.0,49,0.00,CLR,,0.01,WeatherDisplay:10.37,2013-08-24 18:59:00,
2013-08-24 15:14:00,78.7,57.4,30.29,NE,51,5.0,10.0,48,0.00,CLR,,0.01,WeatherDisplay:10.37,2013-08-24 19:14:00,
2013-08-24 15:30:00,79.1,57.2,30.29,ENE,75,6.0,13.0,47,0.00,CLR,,0.01,WeatherDisplay:10.37,2013-08-24 19:30:00,
2013-08-24 15:44:00,78.6,57.8,30.28,ENE,68,3.0,12.0,49,0.00,CLR,,0.01,WeatherDisplay:10.37,2013-08-24 19:44:00,
2013-08-24 15:59:00,78.5,57.7,30.28,NE,36,3.0,7.0,49,0.00,CLR,,0.01,WeatherDisplay:10.37,2013-08-24 19:59:00,
2013-08-24 16:14:00,78.8,57.4,30.28,NE,38,3.0,10.0,48,0.00,CLR,,0.01,WeatherDisplay:10.37,2013-08-24 20:14:00,
2013-08-24 16:29:00,79.2,57.8,30.28,NE,56,3.0,10.0,48,0.00,CLR,,0.01,WeatherDisplay:10.37,2013-08-24 20:29:00,
2013-08-24 16:44:00,78.7,57.9,30.29,ENE,68,3.0,10.0,49,0.00,CLR,,0.01,WeatherDisplay:10.37,2013-08-24 20:44:00,
2013-08-24 16:59:00,78.3,57.6,30.29,ENE,61,1.0,10.0,49,0.00,CLR,,0.01,WeatherDisplay:10.37,2013-08-24 20:59:00,
2013-08-24 17:14:00,77.7,57.0,30.29,NE,52,3.0,10.0,49,0.00,CLR,,0.01,WeatherDisplay:10.37,2013-08-24 21:14:00,
2013-08-24 17:30:00,77.2,57.7,30.28,NE,42,1.0,6.0,51,0.00,BKN,,0.01,WeatherDisplay:10.37,2013-08-24 21:30:00,
2013-08-24 17:44:00,77.0,57.5,30.29,ENE,64,1.0,8.0,51,0.00,BKN,,0.01,WeatherDisplay:10.37,2013-08-24 21:44:00,
2013-08-24 17:59:00,77.1,59.1,30.29,NE,45,1.0,5.0,54,0.00,BKN,,0.01,WeatherDisplay:10.37,2013-08-24 21:59:00,
2013-08-24 18:14:00,75.8,57.9,30.28,NNE,19,0.0,5.0,54,0.00,BKN,,0.01,WeatherDisplay:10.37,2013-08-24 22:14:00,
2013-08-24 18:30:00,74.6,59.3,30.28,NNE,21,1.0,3.0,59,0.00,FEW,,0.01,WeatherDisplay:10.37,2013-08-24 22:30:00,
2013-08-24 18:44:00,74.5,57.8,30.28,NE,52,1.0,7.0,56,0.00,FEW,,0.01,WeatherDisplay:10.37,2013-08-24 22:44:00,
2013-08-24 18:59:00,74.2,58.9,30.28,NE,37,0.0,6.0,59,0.00,FEW,,0.01,WeatherDisplay:10.37,2013-08-24 22:59:00,
2013-08-24 19:14:00,73.2,59.4,30.29,NE,37,0.0,3.0,62,0.00,FEW,,0.01,WeatherDisplay:10.37,2013-08-24 23:14:00,
2013-08-24 19:30:00,72.2,60.2,30.29,NE,37,0.0,2.0,66,0.00,CLR,,0.01,WeatherDisplay:10.37,2013-08-24 23:30:00,
2013-08-24 19:44:00,71.0,60.7,30.29,NE,37,0.0,0.0,70,0.00,CLR,,0.01,WeatherDisplay:10.37,2013-08-24 23:44:00,
2013-08-24 19:59:00,69.5,60.1,30.29,NE,37,0.0,0.0,72,0.00,CLR,,0.01,WeatherDisplay:10.37,2013-08-24 23:59:00,
2013-08-24 20:14:00,67.9,60.0,30.30,NE,37,0.0,0.0,76,0.00,CLR,,0.01,WeatherDisplay:10.37,2013-08-25 00:14:00,
2013-08-24 20:30:00,66.3,59.6,30.30,NE,37,0.0,0.0,79,0.00,CLR,,0.01,WeatherDisplay:10.37,2013-08-25 00:30:00,
2013-08-24 20:44:00,65.0,59.4,30.30,NE,37,0.0,0.0,82,0.00,CLR,,0.01,WeatherDisplay:10.37,2013-08-25 00:44:00,
2013-08-24 20:59:00,64.0,59.0,30.32,NE,37,0.0,0.0,84,0.00,CLR,,0.01,WeatherDisplay:10.37,2013-08-25 00:59:00,
2013-08-24 21:14:00,63.2,58.6,30.32,NE,37,0.0,0.0,85,0.00,CLR,,0.01,WeatherDisplay:10.37,2013-08-25 01:14:00,
2013-08-24 21:30:00,62.6,58.4,30.32,NE,37,0.0,0.0,86,0.00,CLR,,0.01,WeatherDisplay:10.37,2013-08-25 01:30:00,
2013-08-24 21:44:00,62.2,58.6,30.32,NE,37,0.0,0.0,88,0.00,CLR,,0.01,WeatherDisplay:10.37,2013-08-25 01:44:00,
2013-08-24 21:59:00,61.8,58.2,30.33,NE,37,0.0,0.0,88,0.00,CLR,,0.01,WeatherDisplay:10.37,2013-08-25 01:59:00,
2013-08-24 22:14:00,61.4,57.8,30.33,NE,37,0.0,0.0,88,0.00,CLR,,0.01,WeatherDisplay:10.37,2013-08-25 02:14:00,
2013-08-24 22:30:00,61.0,57.7,30.33,NE,37,0.0,0.0,89,0.00,CLR,,0.01,WeatherDisplay:10.37,2013-08-25 02:30:00,
2013-08-24 22:44:00,60.7,57.4,30.34,NE,37,0.0,0.0,89,0.00,CLR,,0.01,WeatherDisplay:10.37,2013-08-25 02:44:00,
2013-08-24 22:59:00,60.4,57.5,30.34,NE,37,0.0,0.0,90,0.00,CLR,,0.01,WeatherDisplay:10.37,2013-08-25 02:59:00,
2013-08-24 23:14:00,60.1,57.2,30.35,NE,37,0.0,0.0,90,0.00,CLR,,0.01,WeatherDisplay:10.37,2013-08-25 03:14:00,
2013-08-24 23:30:00,59.8,57.2,30.35,NE,37,0.0,0.0,91,0.00,CLR,,0.01,WeatherDisplay:10.37,2013-08-25 03:30:00,
2013-08-24 23:44:00,59.6,57.0,30.35,NE,37,0.0,0.0,91,0.00,CLR,,0.01,WeatherDisplay:10.37,2013-08-25 03:44:00,
2013-08-24 23:59:00,59.5,57.2,30.35,NE,37,0.0,0.0,92,0.00,RA,,0.00,WeatherDisplay:10.37,2013-08-25 03:59:00,